Year,Month,Day,Hour,Minute,Value (Times are PST for temperature in C)
2014,06,09,00,00,15.70
2014,06,09,00,01,15.70
2014,06,09,00,02,15.70
2014,06,09,00,03,15.70
2014,06,09,00,04,15.70
2014,06,09,00,05,15.70
2014,06,09,00,06,15.60
2014,06,09,00,07,15.60
2014,06,09,00,08,15.60
2014,06,09,00,09,15.60
2014,06,09,00,10,15.60
2014,06,09,00,11,15.60
2014,06,09,00,12,15.50
2014,06,09,00,13,15.50
2014,06,09,00,14,15.50
2014,06,09,00,15,15.40
2014,06,09,00,16,15.40
2014,06,09,00,17,15.40
2014,06,09,00,18,15.40
2014,06,09,00,19,15.40
2014,06,09,00,20,15.40
2014,06,09,00,21,15.30
2014,06,09,00,22,15.30
2014,06,09,00,23,15.30
2014,06,09,00,24,15.30
2014,06,09,00,25,15.30
2014,06,09,00,26,15.30
2014,06,09,00,27,15.30
2014,06,09,00,28,15.30
2014,06,09,00,29,15.30
2014,06,09,00,30,15.30
2014,06,09,00,31,15.30
2014,06,09,00,32,15.20
2014,06,09,00,33,15.20
2014,06,09,00,34,15.20
2014,06,09,00,35,15.20
2014,06,09,00,36,15.20
2014,06,09,00,37,15.20
2014,06,09,00,38,15.20
2014,06,09,00,39,15.20
2014,06,09,00,40,15.20
2014,06,09,00,41,15.20
2014,06,09,00,42,15.20
2014,06,09,00,43,15.10
2014,06,09,00,44,15.10
2014,06,09,00,45,15.10
2014,06,09,00,46,15.10
2014,06,09,00,47,15.10
2014,06,09,00,48,15.10
2014,06,09,00,49,15.10
2014,06,09,00,50,15.10
2014,06,09,00,51,15.10
2014,06,09,00,52,15.10
2014,06,09,00,53,15.10
2014,06,09,00,54,15.10
2014,06,09,00,55,15.10
2014,06,09,00,56,15.10
2014,06,09,00,57,15.10
2014,06,09,00,58,15.10
2014,06,09,00,59,15.10
2014,06,09,01,00,15.10
2014,06,09,01,01,15.10
2014,06,09,01,02,15.10
2014,06,09,01,03,15.10
2014,06,09,01,04,15.10
2014,06,09,01,05,15.10
2014,06,09,01,06,15.10
2014,06,09,01,07,15.10
2014,06,09,01,08,15.10
2014,06,09,01,09,15.10
2014,06,09,01,10,15.10
2014,06,09,01,11,15.10
2014,06,09,01,12,15.10
2014,06,09,01,13,15.10
2014,06,09,01,14,15.00
2014,06,09,01,15,15.00
2014,06,09,01,16,15.00
2014,06,09,01,17,15.00
2014,06,09,01,18,15.00
2014,06,09,01,19,15.00
2014,06,09,01,20,14.90
2014,06,09,01,21,14.90
2014,06,09,01,22,14.90
2014,06,09,01,23,14.90
2014,06,09,01,24,14.90
2014,06,09,01,25,14.90
2014,06,09,01,26,14.90
2014,06,09,01,27,14.90
2014,06,09,01,28,14.90
2014,06,09,01,29,14.90
2014,06,09,01,30,14.90
2014,06,09,01,31,14.90
2014,06,09,01,32,14.80
2014,06,09,01,33,14.80
2014,06,09,01,34,14.80
2014,06,09,01,35,14.80
2014,06,09,01,36,14.80
2014,06,09,01,37,14.80
2014,06,09,01,38,14.80
2014,06,09,01,39,14.80
2014,06,09,01,40,14.80
2014,06,09,01,41,14.80
2014,06,09,01,42,14.80
2014,06,09,01,43,14.80
2014,06,09,01,44,14.80
2014,06,09,01,45,14.80
2014,06,09,01,46,14.80
2014,06,09,01,47,14.80
2014,06,09,01,48,14.80
2014,06,09,01,49,14.80
2014,06,09,01,50,14.80
2014,06,09,01,51,14.80
2014,06,09,01,52,14.80
2014,06,09,01,53,14.80
2014,06,09,01,54,14.80
2014,06,09,01,55,14.80
2014,06,09,01,56,14.80
2014,06,09,01,57,14.80
2014,06,09,01,58,14.80
2014,06,09,01,59,14.80
2014,06,09,02,00,14.80
2014,06,09,02,01,14.80
2014,06,09,02,02,14.80
2014,06,09,02,03,14.80
2014,06,09,02,04,14.80
2014,06,09,02,05,14.80
2014,06,09,02,06,14.80
2014,06,09,02,07,14.80
2014,06,09,02,08,14.80
2014,06,09,02,09,14.80
2014,06,09,02,10,14.80
2014,06,09,02,11,14.80
2014,06,09,02,12,14.70
2014,06,09,02,13,14.70
2014,06,09,02,14,14.70
2014,06,09,02,15,14.70
2014,06,09,02,16,14.70
2014,06,09,02,17,14.70
2014,06,09,02,18,14.70
2014,06,09,02,19,14.70
2014,06,09,02,20,14.70
2014,06,09,02,21,14.70
2014,06,09,02,22,14.70
2014,06,09,02,23,14.70
2014,06,09,02,24,14.70
2014,06,09,02,25,14.60
2014,06,09,02,26,14.60
2014,06,09,02,27,14.60
2014,06,09,02,28,14.60
2014,06,09,02,29,14.60
2014,06,09,02,30,14.60
2014,06,09,02,31,14.60
2014,06,09,02,32,14.60
2014,06,09,02,33,14.60
2014,06,09,02,34,14.60
2014,06,09,02,35,14.60
2014,06,09,02,36,14.60
2014,06,09,02,37,14.60
2014,06,09,02,38,14.60
2014,06,09,02,39,14.60
2014,06,09,02,40,14.60
2014,06,09,02,41,14.60
2014,06,09,02,42,14.60
2014,06,09,02,43,14.60
2014,06,09,02,44,14.60
2014,06,09,02,45,14.60
2014,06,09,02,46,14.60
2014,06,09,02,47,14.60
2014,06,09,02,48,14.60
2014,06,09,02,49,14.60
2014,06,09,02,50,14.60
2014,06,09,02,51,14.60
2014,06,09,02,52,14.60
2014,06,09,02,53,14.60
2014,06,09,02,54,14.60
2014,06,09,02,55,14.60
2014,06,09,02,56,14.60
2014,06,09,02,57,14.50
2014,06,09,02,58,14.50
2014,06,09,02,59,14.50
2014,06,09,03,00,14.50
2014,06,09,03,01,14.50
2014,06,09,03,02,14.50
2014,06,09,03,03,14.50
2014,06,09,03,04,14.50
2014,06,09,03,05,14.40
2014,06,09,03,06,14.40
2014,06,09,03,07,14.40
2014,06,09,03,08,14.40
2014,06,09,03,09,14.40
2014,06,09,03,10,14.40
2014,06,09,03,11,14.40
2014,06,09,03,12,14.40
2014,06,09,03,13,14.40
2014,06,09,03,14,14.40
2014,06,09,03,15,14.40
2014,06,09,03,16,14.40
2014,06,09,03,17,14.40
2014,06,09,03,18,14.40
2014,06,09,03,19,14.40
2014,06,09,03,20,14.30
2014,06,09,03,21,14.30
2014,06,09,03,22,14.30
2014,06,09,03,23,14.30
2014,06,09,03,24,14.30
2014,06,09,03,25,14.30
2014,06,09,03,26,14.30
2014,06,09,03,27,14.30
2014,06,09,03,28,14.30
2014,06,09,03,29,14.30
2014,06,09,03,30,14.30
2014,06,09,03,31,14.30
2014,06,09,03,32,14.30
2014,06,09,03,33,14.30
2014,06,09,03,34,14.30
2014,06,09,03,35,14.30
2014,06,09,03,36,14.30
2014,06,09,03,37,14.20
2014,06,09,03,38,14.20
2014,06,09,03,39,14.20
2014,06,09,03,40,14.20
2014,06,09,03,41,14.20
2014,06,09,03,42,14.20
2014,06,09,03,43,14.20
2014,06,09,03,44,14.20
2014,06,09,03,45,14.20
2014,06,09,03,46,14.20
2014,06,09,03,47,14.20
2014,06,09,03,48,14.20
2014,06,09,03,49,14.10
2014,06,09,03,50,14.10
2014,06,09,03,51,14.10
2014,06,09,03,52,14.10
2014,06,09,03,53,14.10
2014,06,09,03,54,14.10
2014,06,09,03,55,14.10
2014,06,09,03,56,14.10
2014,06,09,03,57,14.10
2014,06,09,03,58,14.10
2014,06,09,03,59,14.10
2014,06,09,04,00,14.10
2014,06,09,04,01,14.10
2014,06,09,04,02,14.10
2014,06,09,04,03,14.10
2014,06,09,04,04,14.10
2014,06,09,04,05,14.10
2014,06,09,04,06,14.10
2014,06,09,04,07,14.00
2014,06,09,04,08,14.00
2014,06,09,04,09,14.00
2014,06,09,04,10,14.00
2014,06,09,04,11,14.00
2014,06,09,04,12,13.90
2014,06,09,04,13,13.90
2014,06,09,04,14,13.90
2014,06,09,04,15,13.90
2014,06,09,04,16,13.90
2014,06,09,04,17,13.90
2014,06,09,04,18,13.90
2014,06,09,04,19,13.90
2014,06,09,04,20,13.90
2014,06,09,04,21,13.90
2014,06,09,04,22,13.90
2014,06,09,04,23,13.90
2014,06,09,04,24,13.90
2014,06,09,04,25,13.80
2014,06,09,04,26,13.80
2014,06,09,04,27,13.80
2014,06,09,04,28,13.80
2014,06,09,04,29,13.80
2014,06,09,04,30,13.80
2014,06,09,04,31,13.80
2014,06,09,04,32,13.80
2014,06,09,04,33,13.80
2014,06,09,04,34,13.80
2014,06,09,04,35,13.80
2014,06,09,04,36,13.80
2014,06,09,04,37,13.80
2014,06,09,04,38,13.80
2014,06,09,04,39,13.80
2014,06,09,04,40,13.80
2014,06,09,04,41,13.80
2014,06,09,04,42,13.80
2014,06,09,04,43,13.80
2014,06,09,04,44,13.80
2014,06,09,04,45,13.70
2014,06,09,04,46,13.70
2014,06,09,04,47,13.70
2014,06,09,04,48,13.70
2014,06,09,04,49,13.70
2014,06,09,04,50,13.70
2014,06,09,04,51,13.70
2014,06,09,04,52,13.70
2014,06,09,04,53,13.60
2014,06,09,04,54,13.60
2014,06,09,04,55,13.60
2014,06,09,04,56,13.60
2014,06,09,04,57,13.60
2014,06,09,04,58,13.50
2014,06,09,04,59,13.50
2014,06,09,05,00,13.50
2014,06,09,05,01,13.50
2014,06,09,05,02,13.40
2014,06,09,05,03,13.40
2014,06,09,05,04,13.40
2014,06,09,05,05,13.40
2014,06,09,05,06,13.40
2014,06,09,05,07,13.40
2014,06,09,05,08,13.30
2014,06,09,05,09,13.30
2014,06,09,05,10,13.30
2014,06,09,05,11,13.30
2014,06,09,05,12,13.30
2014,06,09,05,13,13.30
2014,06,09,05,14,13.30
2014,06,09,05,15,13.30
2014,06,09,05,16,13.30
2014,06,09,05,17,13.30
2014,06,09,05,18,13.20
2014,06,09,05,19,13.20
2014,06,09,05,20,13.20
2014,06,09,05,21,13.20
2014,06,09,05,22,13.20
2014,06,09,05,23,13.20
2014,06,09,05,24,13.20
2014,06,09,05,25,13.20
2014,06,09,05,26,13.20
2014,06,09,05,27,13.20
2014,06,09,05,28,13.10
2014,06,09,05,29,13.10
2014,06,09,05,30,13.10
2014,06,09,05,31,13.10
2014,06,09,05,32,13.10
2014,06,09,05,33,13.10
2014,06,09,05,34,13.10
2014,06,09,05,35,13.10
2014,06,09,05,36,13.10
2014,06,09,05,37,13.10
2014,06,09,05,38,13.10
2014,06,09,05,39,13.10
2014,06,09,05,40,13.10
2014,06,09,05,41,13.10
2014,06,09,05,42,13.10
2014,06,09,05,43,13.10
2014,06,09,05,44,13.10
2014,06,09,14,30,18.40
2014,06,09,14,31,18.50
2014,06,09,14,32,18.50
2014,06,09,14,33,18.50
2014,06,09,14,34,18.50
2014,06,09,14,35,18.60
2014,06,09,14,36,18.70
2014,06,09,14,37,18.90
2014,06,09,14,38,19.00
2014,06,09,14,39,19.10
2014,06,09,14,40,19.20
2014,06,09,14,41,19.20
2014,06,09,14,42,19.20
2014,06,09,14,43,19.20
2014,06,09,14,44,19.00
2014,06,09,14,45,18.90
2014,06,09,14,46,18.80
2014,06,09,14,47,18.70
2014,06,09,14,48,18.70
2014,06,09,14,49,18.70
2014,06,09,14,50,18.70
2014,06,09,14,51,18.70
2014,06,09,14,52,18.80
2014,06,09,14,53,18.80
2014,06,09,14,54,18.80
2014,06,09,14,55,18.80
2014,06,09,14,56,18.80
2014,06,09,14,57,18.80
2014,06,09,14,58,18.80
2014,06,09,14,59,18.80
2014,06,09,15,00,18.90
2014,06,09,15,01,18.90
2014,06,09,15,02,19.00
2014,06,09,15,03,19.00
2014,06,09,15,04,18.90
2014,06,09,15,05,18.80
2014,06,09,15,06,18.80
2014,06,09,15,07,18.90
2014,06,09,15,08,18.90
2014,06,09,15,09,19.00
2014,06,09,15,10,19.00
2014,06,09,15,11,19.00
2014,06,09,15,12,18.90
2014,06,09,15,13,18.90
2014,06,09,15,14,18.90
2014,06,09,15,15,19.00
2014,06,09,15,16,19.00
2014,06,09,15,17,19.10
2014,06,09,15,18,19.10
2014,06,09,15,19,19.20
2014,06,09,15,20,19.20
2014,06,09,15,21,19.10
2014,06,09,15,22,19.10
2014,06,09,15,23,19.20
2014,06,09,15,24,19.30
2014,06,09,15,25,19.20
2014,06,09,15,26,19.20
2014,06,09,15,27,19.30
2014,06,09,15,28,19.30
2014,06,09,15,29,19.40
2014,06,09,15,30,19.40
2014,06,09,15,31,19.50
2014,06,09,15,32,19.60
2014,06,09,15,33,19.60
2014,06,09,15,34,19.60
2014,06,09,15,35,19.60
2014,06,09,15,36,19.70
2014,06,09,15,37,19.60
2014,06,09,15,38,19.60
2014,06,09,15,39,19.50
2014,06,09,15,40,19.50
2014,06,09,15,41,19.50
2014,06,09,15,42,19.50
2014,06,09,15,43,19.40
2014,06,09,15,44,19.50
2014,06,09,15,45,19.60
2014,06,09,15,46,19.60
2014,06,09,15,47,19.60
2014,06,09,15,48,19.70
2014,06,09,15,49,19.80
2014,06,09,15,50,19.80
2014,06,09,15,51,19.80
2014,06,09,15,52,19.90
2014,06,09,15,53,19.90
2014,06,09,15,54,19.90
2014,06,09,15,55,19.80
2014,06,09,15,56,19.80
2014,06,09,15,57,19.70
2014,06,09,15,58,19.70
2014,06,09,15,59,19.70
2014,06,09,16,00,19.70
2014,06,09,16,01,19.80
2014,06,09,16,02,19.70
2014,06,09,16,03,19.70
2014,06,09,16,04,19.70
2014,06,09,16,05,19.80
2014,06,09,16,06,19.90
2014,06,09,16,07,19.90
2014,06,09,16,08,20.00
2014,06,09,16,09,20.00
2014,06,09,16,10,20.10
2014,06,09,16,11,20.10
2014,06,09,16,12,20.10
2014,06,09,16,13,20.10
2014,06,09,16,14,20.10
2014,06,09,16,15,20.10
2014,06,09,16,16,20.20
2014,06,09,16,17,20.30
2014,06,09,16,18,20.20
2014,06,09,16,19,20.10
2014,06,09,16,20,20.10
2014,06,09,16,21,20.10
2014,06,09,16,22,20.00
2014,06,09,16,23,20.00
2014,06,09,16,24,20.00
2014,06,09,16,25,20.00
2014,06,09,16,26,19.90
2014,06,09,16,27,19.90
2014,06,09,16,28,19.90
2014,06,09,16,29,19.80
2014,06,09,16,30,19.80
2014,06,09,16,31,19.80
2014,06,09,16,32,19.80
2014,06,09,16,33,19.80
2014,06,09,16,34,19.80
2014,06,09,16,35,19.80
2014,06,09,16,36,19.80
2014,06,09,16,37,19.80
2014,06,09,16,38,19.80
2014,06,09,16,39,19.80
2014,06,09,16,40,19.80
2014,06,09,16,41,19.80
2014,06,09,16,42,19.70
2014,06,09,16,43,19.70
2014,06,09,16,44,19.70
2014,06,09,16,45,19.80
2014,06,09,16,46,19.80
2014,06,09,16,47,19.80
2014,06,09,16,48,19.80
2014,06,09,16,49,19.80
2014,06,09,16,50,19.90
2014,06,09,16,51,19.90
2014,06,09,16,52,19.90
2014,06,09,16,53,20.00
2014,06,09,16,54,20.00
2014,06,09,16,55,20.10
2014,06,09,16,56,20.20
2014,06,09,16,57,20.20
2014,06,09,16,58,20.20
2014,06,09,16,59,20.20
2014,06,09,17,00,20.20
2014,06,09,17,01,20.20
2014,06,09,17,02,20.30
2014,06,09,17,03,20.30
2014,06,09,17,04,20.30
2014,06,09,17,05,20.30
2014,06,09,17,06,20.30
2014,06,09,17,07,20.30
2014,06,09,17,08,20.30
2014,06,09,17,09,20.30
2014,06,09,17,10,20.20
2014,06,09,17,11,20.20
2014,06,09,17,12,20.10
2014,06,09,17,13,20.00
2014,06,09,17,14,20.00
2014,06,09,17,15,20.00
2014,06,09,17,16,19.90
2014,06,09,17,17,19.90
2014,06,09,17,18,20.00
2014,06,09,17,19,20.10
2014,06,09,17,20,20.10
2014,06,09,17,21,20.00
2014,06,09,17,22,20.00
2014,06,09,17,23,19.90
2014,06,09,17,24,19.90
2014,06,09,17,25,19.90
2014,06,09,17,26,19.90
2014,06,09,17,27,19.90
2014,06,09,17,28,19.90
2014,06,09,17,29,19.90
2014,06,09,17,30,19.90
2014,06,09,17,31,19.90
2014,06,09,17,32,19.90
2014,06,09,17,33,19.90
2014,06,09,17,34,20.00
2014,06,09,17,35,20.00
2014,06,09,17,36,20.10
2014,06,09,17,37,20.10
2014,06,09,17,38,20.20
2014,06,09,17,39,20.10
2014,06,09,17,40,20.10
2014,06,09,17,41,20.10
2014,06,09,17,42,20.10
2014,06,09,17,43,20.20
2014,06,09,17,44,20.20
2014,06,09,17,45,20.20
2014,06,09,17,46,20.30
2014,06,09,17,47,20.30
2014,06,09,17,48,20.30
2014,06,09,17,49,20.40
2014,06,09,17,50,20.40
2014,06,09,17,51,20.40
2014,06,09,17,52,20.40
2014,06,09,17,53,20.40
2014,06,09,17,54,20.40
2014,06,09,17,55,20.40
2014,06,09,17,56,20.50
2014,06,09,17,57,20.50
2014,06,09,17,58,20.60
2014,06,09,17,59,20.50
2014,06,09,18,00,20.50
2014,06,09,18,01,20.50
2014,06,09,18,02,20.40
2014,06,09,18,03,20.40
2014,06,09,18,04,20.40
2014,06,09,18,05,20.40
2014,06,09,18,06,20.40
2014,06,09,18,07,20.40
2014,06,09,18,08,20.40
2014,06,09,18,09,20.40
2014,06,09,18,10,20.40
2014,06,09,18,11,20.40
2014,06,09,18,12,20.40
2014,06,09,18,13,20.40
2014,06,09,18,14,20.30
2014,06,09,18,15,20.30
2014,06,09,18,16,20.30
2014,06,09,18,17,20.30
2014,06,09,18,18,20.30
2014,06,09,18,19,20.30
2014,06,09,18,20,20.30
2014,06,09,18,21,20.20
2014,06,09,18,22,20.20
2014,06,09,18,23,20.20
2014,06,09,18,24,20.30
2014,06,09,18,25,20.30
2014,06,09,18,26,20.30
2014,06,09,18,27,20.30
2014,06,09,18,28,20.30
2014,06,09,18,29,20.30
2014,06,09,18,30,20.40
2014,06,09,18,31,20.50
2014,06,09,18,32,20.50
2014,06,09,18,33,20.60
2014,06,09,18,34,20.60
2014,06,09,18,35,20.70
2014,06,09,18,36,20.70
2014,06,09,18,37,20.80
2014,06,09,18,38,20.90
2014,06,09,18,39,20.90
2014,06,09,18,40,21.00
2014,06,09,18,41,21.00
2014,06,09,18,42,21.00
2014,06,09,18,43,21.00
2014,06,09,18,44,20.90
2014,06,09,18,45,20.80
2014,06,09,18,46,20.80
2014,06,09,18,47,20.80
2014,06,09,18,48,20.70
2014,06,09,18,49,20.70
2014,06,09,18,50,20.70
2014,06,09,18,51,20.70
2014,06,09,18,52,20.70
2014,06,09,18,53,20.70
2014,06,09,18,54,20.70
2014,06,09,18,55,20.60
2014,06,09,18,56,20.60
2014,06,09,18,57,20.60
2014,06,09,18,58,20.70
2014,06,09,18,59,20.70
2014,06,09,19,00,20.70
2014,06,09,19,01,20.70
2014,06,09,19,02,20.70
2014,06,09,19,03,20.70
2014,06,09,19,04,20.60
2014,06,09,19,05,20.50
2014,06,09,19,06,20.50
2014,06,09,19,07,20.50
2014,06,09,19,08,20.50
2014,06,09,19,09,20.50
2014,06,09,19,10,20.60
2014,06,09,19,11,20.60
2014,06,09,19,12,20.70
2014,06,09,19,13,20.60
2014,06,09,19,14,20.60
2014,06,09,19,15,20.60
2014,06,09,19,16,20.50
2014,06,09,19,17,20.40
2014,06,09,19,18,20.40
2014,06,09,19,19,20.40
2014,06,09,19,20,20.40
2014,06,09,19,21,20.40
2014,06,09,19,22,20.40
2014,06,09,19,23,20.30
2014,06,09,19,24,20.30
2014,06,09,19,25,20.30
2014,06,09,19,26,20.30
2014,06,09,19,27,20.30
2014,06,09,19,28,20.30
2014,06,09,19,29,20.40
2014,06,09,19,30,20.40
2014,06,09,19,31,20.40
2014,06,09,19,32,20.40
2014,06,09,19,33,20.40
2014,06,09,19,34,20.40
2014,06,09,19,35,20.40
2014,06,09,19,36,20.40
2014,06,09,19,37,20.40
2014,06,09,19,38,20.40
2014,06,09,19,39,20.40
2014,06,09,19,40,20.40
2014,06,09,19,41,20.30
2014,06,09,19,42,20.30
2014,06,09,19,43,20.30
2014,06,09,19,44,20.30
2014,06,09,19,45,20.20
2014,06,09,19,46,20.10
2014,06,09,19,47,20.00
2014,06,09,19,48,19.90
2014,06,09,19,49,19.80
2014,06,09,19,50,19.80
2014,06,09,19,51,19.70
2014,06,09,19,52,19.70
2014,06,09,19,53,19.60
2014,06,09,19,54,19.60
2014,06,09,19,55,19.50
2014,06,09,19,56,19.40
2014,06,09,19,57,19.30
2014,06,09,19,58,19.30
2014,06,09,19,59,19.20
2014,06,09,20,00,19.20
2014,06,09,20,01,19.10
2014,06,09,20,02,19.10
2014,06,09,20,03,19.00
2014,06,09,20,04,18.90
2014,06,09,20,05,18.90
2014,06,09,20,06,18.80
2014,06,09,20,07,18.80
2014,06,09,20,08,18.80
2014,06,09,20,09,18.80
2014,06,09,20,10,18.80
2014,06,09,20,11,18.80
2014,06,09,20,12,18.80
2014,06,09,20,13,18.70
2014,06,09,20,14,18.70
2014,06,09,20,15,18.70
2014,06,09,20,16,18.70
2014,06,09,20,17,18.60
2014,06,09,20,18,18.60
2014,06,09,20,19,18.60
2014,06,09,20,20,18.60
2014,06,09,20,21,18.60
2014,06,09,20,22,18.50
2014,06,09,20,23,18.50
2014,06,09,20,24,18.50
2014,06,09,20,25,18.50
2014,06,09,20,26,18.40
2014,06,09,20,27,18.40
2014,06,09,20,28,18.40
2014,06,09,20,29,18.40
2014,06,09,20,30,18.40
2014,06,09,20,31,18.40
2014,06,09,20,32,18.40
2014,06,09,20,33,18.40
2014,06,09,20,34,18.40
2014,06,09,20,35,18.40
2014,06,09,20,36,18.40
2014,06,09,20,37,18.40
2014,06,09,20,38,18.40
2014,06,09,20,39,18.40
2014,06,09,20,40,18.40
2014,06,09,20,41,18.40
2014,06,09,20,42,18.40
2014,06,09,20,43,18.40
2014,06,09,20,44,18.40
2014,06,09,20,45,18.40
2014,06,09,20,46,18.40
2014,06,09,20,47,18.40
2014,06,09,20,48,18.40
2014,06,09,20,49,18.40
2014,06,09,20,50,18.40
2014,06,09,20,51,18.40
2014,06,09,20,52,18.40
2014,06,09,20,53,18.40
2014,06,09,20,54,18.40
2014,06,09,20,55,18.40
2014,06,09,20,56,18.40
2014,06,09,20,57,18.40
2014,06,09,20,58,18.40
2014,06,09,20,59,18.30
2014,06,09,21,00,18.30
2014,06,09,21,01,18.30
2014,06,09,21,02,18.30
2014,06,09,21,03,18.30
2014,06,09,21,04,18.30
2014,06,09,21,05,18.30
2014,06,09,21,06,18.30
2014,06,09,21,07,18.20
2014,06,09,21,08,18.20
2014,06,09,21,09,18.20
2014,06,09,21,10,18.20
2014,06,09,21,11,18.20
2014,06,09,21,12,18.10
2014,06,09,21,13,18.10
2014,06,09,21,14,18.10
2014,06,09,21,15,18.00
2014,06,09,21,16,18.00
2014,06,09,21,17,17.90
2014,06,09,21,18,17.90
2014,06,09,21,19,17.90
2014,06,09,21,20,17.80
2014,06,09,21,21,17.80
2014,06,09,21,22,17.70
2014,06,09,21,23,17.70
2014,06,09,21,24,17.70
2014,06,09,21,25,17.60
2014,06,09,21,26,17.60
2014,06,09,21,27,17.50
2014,06,09,21,28,17.50
2014,06,09,21,29,17.40
2014,06,09,21,30,17.40
2014,06,09,21,31,17.30
2014,06,09,21,32,17.30
2014,06,09,21,33,17.30
2014,06,09,21,34,17.20
2014,06,09,21,35,17.20
2014,06,09,21,36,17.10
2014,06,09,21,37,17.00
2014,06,09,21,38,17.00
2014,06,09,21,39,16.90
2014,06,09,21,40,16.80
2014,06,09,21,41,16.80
2014,06,09,21,42,16.70
2014,06,09,21,43,16.70
2014,06,09,21,44,16.60
2014,06,09,21,45,16.50
2014,06,09,21,46,16.50
2014,06,09,21,47,16.40
2014,06,09,21,48,16.40
2014,06,09,21,49,16.30
2014,06,09,21,50,16.30
2014,06,09,21,51,16.30
2014,06,09,21,52,16.20
2014,06,09,21,53,16.10
2014,06,09,21,54,16.10
2014,06,09,21,55,16.10
2014,06,09,21,56,16.00
2014,06,09,21,57,15.90
2014,06,09,21,58,15.90
2014,06,09,21,59,15.80
2014,06,09,22,00,15.80
2014,06,09,22,01,15.70
2014,06,09,22,02,15.70
2014,06,09,22,03,15.70
2014,06,09,22,04,15.60
2014,06,09,22,05,15.60
2014,06,09,22,06,15.50
2014,06,09,22,07,15.50
2014,06,09,22,08,15.40
2014,06,09,22,09,15.40
2014,06,09,22,10,15.30
2014,06,09,22,11,15.30
2014,06,09,22,12,15.30
2014,06,09,22,13,15.30
2014,06,09,22,14,15.20
2014,06,09,22,15,15.20
2014,06,09,22,16,15.20
2014,06,09,22,17,15.20
2014,06,09,22,18,15.10
2014,06,09,22,19,15.10
2014,06,09,22,20,15.10
2014,06,09,22,21,15.10
2014,06,09,22,22,15.00
2014,06,09,22,23,15.00
2014,06,09,22,24,14.90
2014,06,09,22,25,14.90
2014,06,09,22,26,14.90
2014,06,09,22,27,14.80
2014,06,09,22,28,14.80
2014,06,09,22,29,14.80
2014,06,09,22,30,14.80
2014,06,09,22,31,14.70
2014,06,09,22,32,14.70
2014,06,09,22,33,14.70
2014,06,09,22,34,14.70
2014,06,09,22,35,14.70
2014,06,09,22,36,14.60
2014,06,09,22,37,14.60
2014,06,09,22,38,14.60
2014,06,09,22,39,14.60
2014,06,09,22,40,14.50
2014,06,09,22,41,14.50
2014,06,09,22,42,14.50
2014,06,09,22,43,14.50
2014,06,09,22,44,14.40
2014,06,09,22,45,14.40
2014,06,09,22,46,14.40
2014,06,09,22,47,14.40
2014,06,09,22,48,14.40
2014,06,09,22,49,14.40
2014,06,09,22,50,14.30
2014,06,09,22,51,14.30
2014,06,09,22,52,14.30
2014,06,09,22,53,14.30
2014,06,09,22,54,14.30
2014,06,09,22,55,14.30
2014,06,09,22,56,14.30
2014,06,09,22,57,14.20
2014,06,09,22,58,14.20
2014,06,09,22,59,14.20
2014,06,09,23,00,14.20
2014,06,09,23,01,14.20
2014,06,09,23,02,14.20
2014,06,09,23,03,14.10
2014,06,09,23,04,14.10
2014,06,09,23,05,14.10
2014,06,09,23,06,14.10
2014,06,09,23,07,14.10
2014,06,09,23,08,14.10
2014,06,09,23,09,14.10
2014,06,09,23,10,14.10
2014,06,09,23,11,14.00
2014,06,09,23,12,14.00
2014,06,09,23,13,14.00
2014,06,09,23,14,14.00
2014,06,09,23,15,13.90
2014,06,09,23,16,13.90
2014,06,09,23,17,13.90
2014,06,09,23,18,13.90
2014,06,09,23,19,13.90
2014,06,09,23,20,13.90
2014,06,09,23,21,13.80
2014,06,09,23,22,13.80
2014,06,09,23,23,13.80
2014,06,09,23,24,13.80
2014,06,09,23,25,13.80
2014,06,09,23,26,13.80
2014,06,09,23,27,13.80
2014,06,09,23,28,13.70
2014,06,09,23,29,13.70
2014,06,09,23,30,13.70
2014,06,09,23,31,13.70
2014,06,09,23,32,13.70
2014,06,09,23,33,13.70
2014,06,09,23,34,13.70
2014,06,09,23,35,13.70
2014,06,09,23,36,13.70
2014,06,09,23,37,13.70
2014,06,09,23,38,13.60
2014,06,09,23,39,13.70
2014,06,09,23,40,13.60
2014,06,09,23,41,13.60
2014,06,09,23,42,13.60
2014,06,09,23,43,13.60
2014,06,09,23,44,13.70
2014,06,09,23,45,13.70
2014,06,09,23,46,13.70
2014,06,09,23,47,13.70
2014,06,09,23,48,13.70
2014,06,09,23,49,13.70
2014,06,09,23,50,13.70
2014,06,09,23,51,13.70
2014,06,09,23,52,13.70
2014,06,09,23,53,13.70
2014,06,09,23,54,13.80
2014,06,09,23,55,13.80
2014,06,09,23,56,13.80
2014,06,09,23,57,13.80
2014,06,09,23,58,13.90
2014,06,09,23,59,13.90
